Lancaster, PA

5:49 AM EDT on June 29, 2017 (GMT -0400)
Lancaster

Weather History for KLNS - October, 2012

Change the Weather History Date:

Friday, October 26, 2012

  Actual Average Record
Temperature  
Mean Temperature 62 °F -  
Max Temperature 64 °F 60 °F 77 °F (1984)
Min Temperature 59 °F 41 °F 28 °F (1987)
Degree Days  
Heating Degree Days 4    
Growing Degree Days 12 (Base 50)    
Moisture  
Dew Point 56 °F    
Average Humidity 83    
Maximum Humidity 90    
Minimum Humidity 70    
Precipitation  
Precipitation 0.00 in - - ()
Sea Level Pressure  
Sea Level Pressure 30.16 in    
Wind  
Wind Speed 3 mph (ESE)    
Max Wind Speed 6 mph    
Max Gust Speed -    
Visibility 5 miles    
Events      
Averages and records for this station are not official NWS values.
T = Trace of Precipitation, MM = Missing Value Source: NWS Daily Summary

Daily Weather History Graph

Daily Weather History Graph

Search for Another Location

Airport or City:

Trip Planner

Search our weather history database for the weather conditions in past years. The results will help you decide how hot, cold, wet, or windy it might be!

Date:

Astronomy

Oct. 26, 2012 Rise Set
Actual Time 7:28 AM EDT 6:09 PM EDT
Civil Twilight 7:00 AM EDT 6:37 PM EDT
Nautical Twilight 6:28 AM EDT 7:08 PM EDT
Astronomical Twilight 5:57 AM EDT 7:40 PM EDT
Moon 4:24 PM EDT (10/26) 4:22 AM EDT (10/26)
Length of Visible Light 11h 36m
Length of Day
10h 41m
Waxing Gibbous, 91% of the Moon is Illuminated
Oct 26
Waxing Gibbous
Oct 29
Full
Nov 6
Last Quarter
Nov 13
New
Nov 20
First Quarter

Hourly Weather History & Observations

Time (EDT) Temp. Dew Point Humidity Pressure Visibility Wind Dir Wind Speed Gust Speed Precip Events Conditions
12:53 AM 60.1 °F 55.9 °F 86% 30.19 in 4.0 mi East 3.5 mph - N/A   Overcast
1:53 AM 59.0 °F 55.9 °F 90% 30.19 in 5.0 mi ESE 3.5 mph - N/A   Overcast
3:53 AM 59.0 °F 55.9 °F 90% 30.19 in 4.0 mi ENE 3.5 mph - N/A   Overcast
4:53 AM 59.0 °F 55.9 °F 90% 30.18 in 4.0 mi ENE 3.5 mph - N/A   Overcast
5:53 AM 59.0 °F 55.9 °F 90% 30.18 in 4.0 mi East 3.5 mph - N/A   Overcast
6:53 AM 59.0 °F 55.9 °F 90% 30.19 in 3.0 mi Calm Calm - N/A   Overcast
7:23 AM 59.0 °F 55.4 °F 88% 30.20 in 2.5 mi Calm Calm - N/A   Overcast
7:53 AM 59.0 °F 55.9 °F 90% 30.21 in 2.5 mi Calm Calm - N/A   Overcast
8:17 AM 59.0 °F 55.4 °F 88% 30.21 in 1.8 mi Calm Calm - N/A   Overcast
8:26 AM 59.0 °F 55.4 °F 88% 30.21 in 2.0 mi ENE 3.5 mph - N/A   Overcast
8:46 AM 59.0 °F 55.4 °F 88% 30.21 in 1.8 mi Calm Calm - N/A   Overcast
8:49 AM 59.0 °F 55.4 °F 88% 30.21 in 2.0 mi East 3.5 mph - N/A   Overcast
9:53 AM 60.1 °F 55.9 °F 86% 30.20 in 2.0 mi East 3.5 mph - N/A   Overcast
10:21 AM 60.8 °F 55.4 °F 82% 30.21 in 3.0 mi East 3.5 mph - N/A   Overcast
10:32 AM 60.8 °F 55.4 °F 82% 30.21 in 2.5 mi Calm Calm - N/A   Overcast
10:53 AM 61.0 °F 57.0 °F 87% 30.21 in 2.5 mi SE 3.5 mph - N/A   Overcast
11:00 AM 60.8 °F 57.2 °F 88% 30.21 in 3.0 mi SE 3.5 mph - N/A   Overcast
11:53 AM 63.0 °F 57.0 °F 81% 30.20 in 4.0 mi SE 5.8 mph - N/A   Haze
12:53 PM 64.9 °F 55.0 °F 70% 30.16 in 5.0 mi SSE 5.8 mph - N/A   Haze
1:43 PM 64.4 °F 55.4 °F 73% 30.15 in 5.0 mi ESE 3.5 mph - N/A   Haze
1:53 PM 64.9 °F 55.0 °F 70% 30.14 in 6.0 mi ESE 5.8 mph - N/A   Haze
2:53 PM 64.9 °F 55.9 °F 73% 30.13 in 6.0 mi SE 5.8 mph - N/A   Haze
3:53 PM 64.9 °F 55.9 °F 73% 30.11 in 7.0 mi ESE 5.8 mph - N/A   Overcast
4:42 PM 64.4 °F 55.4 °F 73% 30.10 in 7.0 mi SE 4.6 mph - N/A   Overcast
4:53 PM 64.0 °F 55.9 °F 75% 30.10 in 7.0 mi SE 4.6 mph - N/A   Overcast
5:44 PM 64.4 °F 57.2 °F 77% 30.10 in 6.0 mi East 4.6 mph - N/A   Haze
5:53 PM 63.0 °F 57.0 °F 81% 30.10 in 6.0 mi East 4.6 mph - N/A   Haze
6:53 PM 62.1 °F 57.0 °F 84% 30.10 in 7.0 mi East 4.6 mph - N/A   Overcast
7:53 PM 62.1 °F 57.0 °F 84% 30.12 in 6.0 mi East 3.5 mph - N/A   Haze
8:13 PM 62.6 °F 57.2 °F 82% 30.12 in 6.0 mi ENE 3.5 mph - N/A   Haze
8:53 PM 62.1 °F 55.9 °F 80% 30.11 in 7.0 mi East 4.6 mph - N/A   Overcast
9:53 PM 61.0 °F 55.9 °F 83% 30.11 in 7.0 mi ESE 3.5 mph - N/A   Overcast
10:43 PM 60.8 °F 55.4 °F 82% 30.10 in 7.0 mi East 4.6 mph - 0.00 in   Overcast
10:53 PM 61.0 °F 55.9 °F 83% 30.10 in 8.0 mi East 4.6 mph - 0.00 in   Overcast
11:53 PM 60.1 °F 55.9 °F 86% 30.08 in 7.0 mi ESE 3.5 mph - N/A   Overcast